Wind_Speed
22 23 24 25 26 25 27 26 18 11 10 8 6 6 7 9 11 12 13 14 16 17 17 17 15 15 14 13 13 13 13 13 13 13 13 11 10 9 9 10 11 12 12 11 10 10 10 10 9 8 7 6 5 5 5 5 5 4 3 2 1 1 0 0 0 0 1 1 2 2 1 1 1 1 2 2 2 3 3 3 4 4 4 5 5
23 23 24 25 26 25 27 26 16 10 9 8 6 6 7 9 10 11 13 14 16 17 17 16 15 15 14 13 13 14 13 13 13 13 13 12 10 9 9 9 11 12 12 12 11 10 10 9 8 7 6 5 5 4 5 5 5 4 3 2 1 1 0 1 1 1 2 2 2 2 2 2 1 1 2 2 3 3 4 4 5 5 5 6 6
23 23 23 25 26 25 26 25 16 10 9 7 6 6 7 9 10 11 12 14 15 16 16 16 16 14 14 13 13 14 14 13 12 12 12 12 10 9 9 9 11 12 12 12 11 10 9 9 8 7 6 5 4 4 4 4 4 4 3 2 1 1 1 1 1 2 2 2 3 2 2 2 2 2 2 3 3 4 4 5 5 6 6 6 7
23 24 23 25 26 25 25 23 15 9 8 7 6 6 7 9 10 11 12 13 15 16 16 16 16 15 14 12 13 14 14 13 12 11 11 11 11 9 9 9 10 12 12 11 11 10 10 9 8 6 5 5 4 3 3 3 4 3 3 2 2 1 1 1 2 2 2 3 3 3 2 2 2 2 3 3 4 4 5 6 6 6 7 7 7
23 24 23 24 25 24 25 22 14 10 8 7 6 6 7 8 10 11 12 13 15 17 17 16 16 15 13 12 12 13 13 13 11 10 10 11 11 10 9 9 10 11 11 11 11 10 10 9 8 7 5 4 4 3 2 2 3 3 3 2 2 1 1 2 2 3 3 3 3 3 3 3 2 3 3 3 4 4 5 5 6 6 7 7 7
23 24 23 24 24 24 24 21 14 10 8 7 6 6 7 9 10 11 12 14 15 17 17 16 16 15 13 11 12 12 12 12 11 10 10 10 10 10 9 8 9 10 11 11 11 10 10 9 8 7 5 4 3 3 2 2 1 2 2 1 1 0 1 1 2 3 3 3 3 3 3 3 3 3 3 3 3 4 4 5 5 6 7 7 8
23 23 23 24 25 24 24 19 13 10 8 8 7 7 8 9 10 11 12 14 15 17 17 16 16 15 13 11 11 12 12 12 12 10 10 9 9 10 9 9 8 9 9 10 10 11 10 9 8 7 6 4 3 3 2 2 2 1 1 0 0 0 1 1 2 3 3 3 4 4 4 4 3 3 3 4 4 4 4 5 6 6 7 8 8
23 24 23 24 25 24 23 18 13 11 9 8 7 7 8 9 10 12 13 14 16 17 17 16 16 16 14 12 11 12 11 11 11 11 10 10 10 10 9 9 8 8 8 9 10 10 10 10 9 8 6 5 4 3 3 3 3 2 2 2 1 1 1 1 2 3 3 4 4 4 4 5 5 4 4 5 5 5 6 6 7 7 8 9 10
23 24 23 25 26 24 22 17 13 11 9 8 8 8 8 9 11 12 13 15 16 17 17 16 16 15 14 12 12 12 11 11 11 11 11 11 11 10 10 9 9 9 9 9 9 10 10 10 9 8 7 6 5 4 4 4 3 3 3 3 3 3 2 2 3 3 4 4 5 5 6 6 6 6 6 6 6 7 7 7 8 8 9 10 11
23 24 24 26 26 25 21 16 13 11 10 9 8 8 8 9 10 12 13 15 16 17 17 16 16 15 14 13 12 12 12 12 12 12 12 12 12 12 11 10 9 9 9 9 9 9 10 10 10 9 8 7 6 6 5 5 5 4 4 4 4 4 4 4 4 4 5 5 6 6 7 7 7 7 7 7 7 8 8 8 9 9 10 10 11
24 25 25 26 27 25 19 15 12 11 10 9 9 9 9 10 11 12 14 16 17 17 17 16 16 15 15 14 13 13 13 13 13 13 13 13 13 12 12 12 10 10 10 10 10 10 10 10 10 9 9 8 7 7 6 6 6 6 5 5 5 5 5 5 5 6 6 6 6 7 7 7 7 7 7 8 9 9 9 10 10 10 11 11 11
25 26 26 28 27 22 16 13 11 10 10 9 9 9 9 10 11 13 14 16 17 17 17 16 15 16 15 15 14 14 15 15 14 13 13 14 14 13 13 13 13 12 11 11 11 10 10 10 10 10 9 9 8 8 8 7 7 7 7 6 6 6 6 6 6 7 7 7 7 7 7 8 8 8 9 9 10 10 11 11 11 11 12 12 12
26 27 28 29 25 17 13 11 11 10 10 9 9 9 10 11 12 13 15 16 17 17 16 16 15 15 16 15 15 16 16 16 16 14 14 14 15 15 14 14 14 13 13 12 11 10 11 12 12 10 10 9 9 8 8 8 8 8 7 7 7 7 7 7 7 8 8 8 8 8 8 8 9 9 10 11 11 11 11 11 11 12 12 12 13
27 28 29 27 19 13 11 11 11 10 9 9 9 9 10 11 12 13 15 16 16 16 17 16 15 15 16 16 16 17 18 18 16 15 14 14 15 15 14 14 13 13 13 13 11 10 11 13 13 12 11 10 9 9 8 8 9 8 8 8 8 8 8 8 8 9 9 9 9 9 9 9 9 10 11 11 11 11 11 11 11 11 11 12 13
28 28 27 21 14 11 11 11 11 10 9 9 9 9 10 11 12 14 15 15 16 16 16 15 15 15 15 16 17 18 18 18 17 15 14 14 14 15 14 13 12 12 13 13 12 12 12 13 13 13 12 11 10 9 9 9 8 8 8 8 8 8 8 8 8 9 9 9 9 9 9 9 10 10 11 11 12 12 12 11 11 11 11 12 13
28 27 22 16 12 11 11 11 10 10 9 8 8 9 10 11 12 14 14 14 15 16 15 15 15 15 16 17 18 19 19 18 17 15 14 14 14 13 13 12 12 13 13 14 14 14 15 14 13 13 14 13 11 10 10 9 9 8 8 8 8 8 8 8 9 9 9 9 10 10 10 10 11 11 11 12 12 12 12 12 12 11 11 12 13
26 22 17 13 12 10 10 10 10 9 8 8 8 9 10 11 12 13 13 14 15 15 14 14 15 16 17 18 19 19 19 17 16 15 14 13 13 11 11 12 13 14 14 14 15 16 17 15 13 14 15 14 13 11 10 10 10 10 9 9 8 9 9 9 9 10 10 10 10 10 10 11 11 12 12 12 13 13 13 13 13 12 12 12 13
22 17 14 13 11 10 10 10 9 8 8 8 8 9 10 11 12 12 13 14 15 13 13 13 14 16 18 19 19 19 18 17 16 14 13 12 11 10 10 11 13 14 14 15 16 17 18 17 15 15 15 14 14 13 12 11 11 12 11 11 10 10 10 10 10 10 11 12 12 12 11 11 12 12 13 13 14 14 14 13 13 13 13 13 13
18 15 14 13 11 10 10 10 9 8 8 8 8 9 10 11 11 11 13 14 13 12 12 12 14 17 19 20 19 18 17 16 16 14 13 11 9 9 9 10 12 13 14 15 16 17 18 18 17 16 15 15 14 13 13 12 12 12 13 13 13 13 13 13 12 12 12 13 14 14 13 13 13 14 14 14 14 14 14 14 14 14 14 14 14
16 16 15 12 11 10 9 9 8 7 7 7 8 9 10 10 10 11 13 13 12 11 11 13 15 17 19 19 18 16 16 16 16 15 13 11 9 9 9 10 12 13 14 14 16 17 18 18 17 17 16 16 15 14 13 13 13 13 13 13 14 15 15 15 15 14 14 15 15 16 15 15 16 16 15 15 15 15 15 15 15 15 15 15 14
16 16 14 12 11 10 9 9 8 7 7 7 8 9 9 9 9 12 13 12 11 11 12 14 16 17 18 17 16 14 14 14 15 14 12 10 9 9 9 10 11 12 13 14 15 16 16 17 17 17 17 17 16 15 14 13 13 13 13 13 14 14 15 15 15 15 15 16 16 17 17 17 16 16 15 15 15 15 15 15 15 15 15 15 15
15 14 13 11 10 10 9 9 9 8 8 8 8 8 8 8 9 12 12 12 11 11 13 15 16 17 17 15 14 13 13 13 13 12 11 10 9 9 9 9 11 12 13 14 14 14 14 15 16 16 17 17 16 16 15 14 13 14 14 14 15 15 15 15 15 15 16 16 17 17 17 17 17 16 16 15 14 14 15 15 15 15 15 15 15
14 13 12 11 10 10 10 10 10 9 8 8 8 8 8 8 10 11 12 11 10 12 14 16 16 16 15 14 12 12 11 12 12 11 10 10 9 8 8 9 10 12 12 12 12 11 12 13 14 15 15 16 16 16 16 15 14 14 15 15 15 16 16 16 16 15 15 16 17 18 18 18 17 17 16 16 15 15 15 15 15 15 15 15 15
13 13 11 11 11 11 11 11 10 10 9 8 8 8 8 9 10 11 11 10 10 12 15 16 16 15 13 12 11 11 11 11 11 10 10 9 8 7 7 9 10 11 12 11 10 10 11 12 12 12 13 14 15 16 16 16 15 15 15 16 16 17 18 18 18 17 16 16 17 18 18 19 18 18 17 17 17 17 17 16 15 15 15 15 15
13 13 12 11 12 12 12 11 11 10 9 9 9 9 9 10 11 11 10 9 10 12 14 15 15 14 12 10 10 10 10 10 10 10 9 8 7 7 8 9 10 11 11 11 10 10 10 11 11 12 13 14 14 15 15 15 15 15 15 16 16 16 18 19 19 19 18 17 18 19 20 20 20 20 19 19 18 18 18 17 17 16 16 15 15
14 13 13 13 13 13 13 12 11 10 10 10 10 9 10 10 10 10 9 8 9 12 14 15 14 12 10 9 9 9 9 10 9 9 8 7 8 8 9 10 11 11 10 10 10 10 10 11 11 12 13 13 13 13 14 14 14 14 15 17 17 17 18 19 19 19 19 18 17 19 20 21 22 22 21 20 19 19 19 18 17 17 17 16 15
15 15 14 14 14 14 13 12 12 11 11 11 11 10 10 10 10 9 8 7 8 11 13 14 13 11 9 8 8 9 9 9 9 8 7 7 8 9 11 11 11 11 10 10 10 10 11 10 10 11 11 12 12 13 13 14 14 14 15 15 16 18 18 20 20 20 19 18 18 18 20 21 22 22 22 21 21 20 20 19 18 17 17 17 16
16 16 16 15 15 14 13 13 12 12 12 12 12 11 11 11 10 9 8 6 8 11 13 13 12 10 8 7 7 8 8 9 9 8 8 8 10 11 12 12 12 11 10 9 9 10 10 10 10 11 11 11 12 12 13 14 14 15 15 14 15 16 17 19 21 21 20 21 20 20 20 21 21 22 22 21 21 21 21 20 19 18 18 17 17
18 17 17 16 15 15 14 14 14 13 13 13 13 12 12 11 10 9 8 6 7 9 12 12 11 9 8 7 7 7 8 8 9 9 9 10 12 13 13 12 12 12 11 10 10 10 11 11 12 13 13 13 13 13 14 14 15 16 16 16 16 16 17 18 19 20 20 22 22 22 22 22 21 22 22 21 21 21 21 20 20 19 19 18 18
19 18 18 18 17 17 16 15 14 14 14 14 14 14 13 12 10 9 8 7 7 8 10 11 10 9 8 8 7 8 8 8 9 9 10 11 12 12 12 12 12 12 12 11 11 12 12 13 14 15 15 16 15 15 15 16 17 18 19 19 19 19 19 19 20 20 20 21 22 22 22 22 21 22 22 22 22 22 21 20 20 20 19 18 18
21 20 20 20 19 18 17 16 16 15 15 15 15 14 14 12 11 10 9 8 7 7 8 10 10 9 8 8 8 8 8 8 9 9 10 11 11 12 11 11 12 12 11 11 12 13 13 14 15 16 16 16 17 17 17 17 18 19 20 20 21 21 20 20 21 21 21 21 21 22 21 21 22 22 22 22 22 22 21 20 19 19 19 19 18
23 22 22 21 20 19 18 17 17 17 16 16 15 15 14 13 12 11 10 9 8 7 7 8 10 9 9 8 8 8 8 8 9 9 10 11 11 12 12 12 12 12 12 12 13 13 14 15 15 16 16 16 16 17 17 17 18 19 19 20 21 21 21 21 21 21 21 22 22 22 21 20 21 22 22 22 22 22 21 21 20 19 19 19 18
25 24 24 22 20 18 18 17 17 17 17 16 16 16 15 14 13 12 11 10 9 7 7 7 8 9 9 9 9 9 9 9 9 10 11 12 12 13 13 14 14 14 14 14 14 14 15 15 16 16 16 17 17 17 17 17 18 19 20 20 20 21 21 21 21 21 21 22 23 23 23 22 21 21 22 22 21 21 21 21 21 20 20 19 19
26 25 23 21 19 18 17 17 17 17 16 16 16 16 15 15 14 13 12 11 10 9 8 8 8 8 8 8 9 9 9 9 9 10 11 12 13 14 14 15 15 15 16 16 16 16 16 16 17 17 18 18 18 18 18 18 19 19 20 20 20 21 22 22 22 22 22 22 23 23 24 25 24 23 22 22 22 21 21 22 22 22 21 20 20
25 24 22 20 19 18 18 17 16 16 16 16 17 16 16 15 14 14 12 12 11 10 10 9 9 9 8 8 9 9 9 9 9 10 10 12 13 14 15 15 16 17 17 17 17 17 17 17 18 18 19 20 20 20 19 19 19 20 20 20 21 22 23 23 23 23 22 22 22 23 24 25 25 25 24 23 24 23 22 22 22 22 22 22 22
24 22 20 20 19 18 17 16 15 15 16 16 16 16 16 15 14 14 13 13 12 12 12 11 11 10 9 9 9 9 10 10 10 10 10 11 13 14 15 16 16 17 18 18 18 19 19 19 19 19 20 20 21 20 20 20 21 21 20 21 22 22 23 23 24 24 24 23 23 24 24 25 25 25 24 23 24 24 24 24 23 22 22 23 23
21 21 19 17 17 16 15 15 14 14 15 15 16 15 15 15 14 14 14 13 14 13 13 13 13 12 11 11 11 11 11 11 11 11 11 12 13 14 15 16 17 17 18 18 19 20 20 20 20 21 21 22 22 21 21 21 22 22 21 21 21 22 23 23 25 25 25 25 24 24 25 25 25 25 25 24 24 23 24 25 25 23 22 22 22
19 19 17 15 13 13 13 13 13 13 14 15 15 15 15 14 14 14 14 14 15 15 15 15 15 14 14 13 13 13 13 13 13 13 13 13 14 14 15 16 17 18 18 18 19 20 20 21 21 21 22 23 23 23 23 22 23 23 22 22 22 22 23 24 24 25 26 26 25 25 24 25 25 26 26 26 25 24 24 25 25 25 25 23 23
15 15 14 12 9 9 11 11 12 12 13 14 14 14 14 14 14 14 14 15 16 16 16 16 16 16 16 15 15 15 15 15 15 15 15 15 15 15 16 17 18 18 19 19 19 20 20 21 21 22 22 23 24 25 24 24 24 24 24 24 24 24 24 25 25 26 26 26 26 26 25 25 25 26 26 27 27 26 24 25 25 25 26 26 25
13 13 10 9 8 8 10 10 11 12 13 14 14 14 13 13 14 14 15 15 16 16 16 17 17 17 17 17 18 17 17 18 18 18 18 17 17 17 17 18 18 19 20 21 21 21 21 21 21 22 22 22 23 24 25 25 25 25 25 25 26 26 25 26 26 26 26 26 27 26 26 26 26 25 26 27 27 27 26 25 25 25 25 26 26
15 14 12 10 10 10 10 11 12 12 13 13 14 13 13 13 14 14 15 15 16 16 16 17 17 18 18 19 19 19 19 20 20 20 20 20 20 20 20 20 20 21 21 22 23 23 23 23 23 23 23 23 23 23 24 25 25 25 25 26 26 26 26 26 26 27 27 27 27 26 26 26 26 26 26 26 27 28 28 26 25 24 25 25 26
17 15 15 14 14 13 12 12 13 14 14 14 14 14 14 14 14 15 15 15 15 16 16 17 17 18 19 20 20 21 21 21 21 21 22 22 22 22 22 22 22 22 23 24 24 25 25 25 25 24 24 24 25 25 25 25 25 25 25 26 26 27 27 27 27 27 28 28 27 27 27 27 27 26 26 26 26 27 28 28 26 25 25 26 26
17 17 18 17 16 16 14 14 14 15 16 15 15 14 14 14 14 14 14 15 15 15 16 16 17 18 19 20 21 21 21 22 22 22 22 23 23 23 23 23 24 24 25 25 26 26 27 27 27 27 26 26 26 26 26 26 26 25 25 25 26 27 28 29 28 28 29 29 29 29 28 29 29 28 27 27 27 26 26 27 27 26 25 25 26
18 19 19 18 18 17 16 15 14 15 15 15 15 14 14 14 14 14 14 15 15 16 16 17 17 18 19 20 20 21 21 21 22 22 23 23 23 24 24 25 25 26 26 27 27 28 28 28 28 28 28 28 28 28 28 28 27 26 26 26 26 27 28 29 28 27 28 29 30 31 30 30 31 31 31 31 30 29 27 27 27 27 27 26 26
19 19 19 18 17 17 16 15 14 14 14 14 14 14 14 14 14 14 15 15 16 16 17 17 18 18 19 20 20 21 21 21 21 22 22 23 23 24 24 25 26 27 28 28 29 30 30 31 30 30 30 30 30 30 31 30 29 28 28 27 27 27 28 29 28 27 27 28 30 31 32 31 31 32 33 33 34 33 32 30 29 28 28 28 27
18 18 18 17 16 16 16 15 15 15 15 15 15 15 15 15 15 15 15 15 16 17 17 18 18 19 20 20 20 21 21 21 21 22 22 22 23 24 24 25 26 27 28 29 30 31 31 32 32 32 32 32 32 32 32 32 32 32 31 30 29 29 28 28 29 27 26 27 28 30 32 32 31 31 32 34 35 35 35 35 33 32 30 29 29
17 17 17 16 16 17 17 17 17 17 17 16 16 16 16 16 16 16 16 16 17 18 18 18 19 20 21 21 21 21 21 21 22 22 22 22 23 24 24 25 26 27 28 29 30 31 32 33 33 33 34 34 34 33 33 33 33 34 34 33 32 31 31 30 30 29 27 26 27 29 31 32 32 32 33 33 34 35 36 36 36 36 34 32 31
16 15 15 15 16 17 17 17 17 18 18 18 18 18 18 17 17 17 17 18 18 18 19 19 20 21 21 22 22 22 22 23 23 23 23 23 24 25 25 26 26 27 28 29 30 31 32 33 33 34 34 35 35 35 35 34 34 34 35 35 34 34 34 34 33 32 30 27 26 28 31 32 32 33 34 34 34 35 35 36 37 37 36 35 34
16 15 15 15 15 15 15 15 15 15 16 17 18 18 17 17 17 17 18 18 19 19 19 19 20 21 21 22 22 23 24 25 25 25 26 26 27 27 27 28 28 28 29 29 30 31 32 33 33 34 34 35 36 36 36 36 36 35 35 36 36 35 35 36 36 36 35 32 29 28 30 33 33 33 34 36 36 36 35 35 36 37 37 36 36
15 15 16 16 16 16 16 16 15 15 15 16 17 17 17 17 18 18 18 19 19 19 19 20 20 21 22 23 24 24 25 27 27 28 28 29 30 30 30 30 30 30 31 31 32 33 33 34 34 35 35 35 36 37 37 37 37 37 37 37 37 37 36 36 37 37 37 36 34 31 30 33 34 33 34 36 37 37 37 37 37 37 37 37 37
14 15 16 16 16 16 17 17 17 17 17 18 18 18 18 18 18 18 18 18 19 19 20 21 21 22 22 23 24 26 27 28 29 29 31 31 32 32 33 33 33 33 33 34 35 35 35 35 35 36 36 36 37 37 37 38 38 38 38 38 38 38 38 38 37 38 38 38 38 36 33 33 35 33 33 36 37 37 38 38 38 38 38 38 38
Wind_Direction
323 329 332 336 337 336 337 340 339 335 337 338 345 352 351 350 350 353 355 355 355 355 354 351 348 348 352 357 1 3 6 7 7 10 11 12 15 21 29 35 40 41 42 38 30 27 26 28 27 24 26 29 39 48 52 55 58 60 57 52 40 28 7 345 272 256 252 255 253 250 244 242 249 270 288 298 306 311 309 306 304 302 299 296 293
319 325 329 333 335 333 334 337 334 328 331 333 336 342 344 344 346 350 352 353 353 352 351 351 347 347 350 355 1 3 6 7 6 7 7 8 10 15 20 24 31 34 35 33 26 23 21 22 24 22 22 24 32 43 51 56 58 59 55 51 37 359 322 278 254 252 255 259 258 257 257 260 265 283 303 312 317 318 315 312 308 305 300 297 296
314 320 326 329 332 330 331 334 327 319 326 325 325 330 335 338 342 347 350 351 350 350 350 349 348 347 349 354 0 4 6 7 6 5 4 4 5 9 13 17 24 27 29 28 24 20 16 17 19 18 18 18 24 37 50 59 60 58 53 47 26 354 307 283 270 266 265 267 269 273 279 286 294 309 318 323 325 324 321 319 315 311 307 304 302
310 314 322 326 329 328 328 330 321 311 319 316 314 319 326 332 337 343 346 348 348 349 349 348 349 348 349 353 360 4 5 6 5 4 2 1 1 4 7 11 18 22 24 24 22 18 13 12 11 12 14 11 13 25 45 61 66 63 55 47 22 341 299 284 275 269 266 270 280 292 305 311 313 320 327 330 331 329 327 325 321 315 312 308 305
304 309 317 322 327 326 325 326 314 304 309 306 303 307 317 325 333 339 342 344 346 348 348 347 349 350 350 352 359 2 4 4 3 1 359 358 359 359 360 6 14 19 21 21 20 16 12 9 4 4 6 5 1 4 19 52 70 73 67 58 37 351 302 287 277 272 269 275 288 300 302 301 305 316 324 329 333 331 329 325 321 317 313 309 306
299 304 313 319 322 322 322 321 306 294 298 294 293 298 309 321 329 336 338 339 342 346 347 345 348 352 351 352 356 359 1 1 0 357 353 354 355 353 353 358 5 13 17 18 16 13 10 7 1 357 357 357 349 347 352 7 48 74 79 77 68 35 297 287 288 285 284 288 291 293 286 279 284 300 309 317 322 323 323 321 319 317 313 309 311
294 300 309 314 317 317 317 315 297 283 287 285 284 291 303 317 326 332 334 334 339 344 345 344 347 350 350 350 352 355 357 358 357 353 348 348 349 347 345 349 355 2 9 13 11 9 6 3 358 352 349 347 336 329 326 329 341 4 53 134 219 228 278 291 301 297 295 295 289 284 278 277 280 286 295 299 305 310 313 315 315 315 314 316 319
290 297 304 309 312 313 313 309 289 275 278 277 278 287 300 313 323 328 330 330 335 340 343 342 343 347 347 346 347 351 353 354 353 350 346 343 342 339 337 340 345 350 359 5 7 5 1 358 355 347 341 337 327 316 307 304 309 313 308 295 285 279 284 295 296 295 292 290 289 287 283 283 287 290 293 296 301 307 309 311 314 317 320 322 324
288 294 301 304 307 310 308 302 284 271 272 272 273 282 296 309 319 324 326 328 333 338 340 339 339 342 343 341 342 347 350 349 348 347 344 339 335 331 329 334 338 340 345 353 360 0 357 354 350 343 335 330 323 312 299 291 291 296 299 300 300 296 293 291 289 290 288 290 294 296 294 294 297 300 301 303 305 306 308 311 316 319 322 324 325
288 292 297 300 304 306 302 294 278 268 269 268 271 279 291 304 313 319 323 327 332 335 337 336 335 338 339 338 339 342 346 345 344 343 341 336 331 327 324 324 329 331 333 339 347 351 352 350 345 340 334 326 319 311 299 289 283 281 286 290 293 295 294 293 293 294 294 296 300 301 302 304 305 304 304 304 304 304 307 313 316 318 320 322 322
286 289 293 297 301 302 295 286 272 263 265 265 269 277 289 301 309 316 322 327 331 332 333 332 331 333 335 336 336 338 340 343 342 339 338 333 326 322 320 318 320 323 325 328 333 340 343 344 341 336 332 324 315 309 301 289 280 275 276 280 284 289 293 296 298 299 299 299 301 302 304 305 303 301 301 301 302 304 309 315 317 318 319 320 319
284 287 291 296 300 297 286 277 265 258 261 263 269 279 290 299 307 315 321 326 328 328 330 329 327 330 332 334 334 336 338 340 340 337 336 330 323 318 317 317 317 317 320 322 323 328 335 336 334 332 329 322 313 308 304 295 284 278 278 281 284 288 291 295 297 298 297 297 298 301 301 301 301 300 299 300 302 306 312 316 318 319 320 321 320
282 287 291 296 297 286 274 267 257 254 260 264 271 280 290 298 308 316 320 324 325 325 326 325 324 327 329 332 333 335 337 339 338 337 336 330 323 318 316 316 316 315 316 319 318 322 334 333 327 326 324 320 314 308 305 301 293 286 283 283 286 288 291 294 295 295 295 296 297 298 300 301 302 301 300 301 303 307 311 314 315 318 322 323 322
283 287 291 295 287 266 260 254 246 249 256 263 272 281 289 299 309 315 319 322 321 322 323 321 321 324 327 330 332 334 336 337 337 337 336 331 324 321 319 317 317 316 316 319 320 323 332 328 321 321 319 317 314 309 306 303 298 292 286 284 284 285 288 292 295 296 296 296 296 298 299 301 302 300 300 300 302 305 307 309 311 316 322 324 326
282 286 292 288 266 249 249 241 241 246 252 261 271 281 290 300 307 313 317 318 318 320 319 318 319 322 327 330 332 333 334 335 335 336 337 333 327 323 322 319 318 320 321 324 326 328 325 317 315 318 316 313 311 307 303 300 298 291 286 283 281 282 285 291 297 299 299 299 298 300 301 302 302 301 300 300 301 302 303 305 307 313 320 325 330
283 288 288 272 248 245 241 237 240 244 252 263 273 282 291 299 306 311 314 314 316 318 316 315 318 321 327 331 332 332 333 335 335 336 337 334 329 323 318 316 319 323 326 327 328 328 324 317 316 319 315 310 307 304 300 295 291 287 282 279 277 277 280 286 293 297 299 299 298 299 300 301 301 301 301 302 302 301 302 303 305 310 317 323 329
283 285 274 252 242 242 238 238 241 245 256 265 274 282 290 298 304 309 311 313 316 317 314 315 319 324 329 331 331 332 333 334 334 336 337 334 329 322 313 310 315 321 326 327 327 327 325 322 320 316 311 306 304 300 298 293 288 283 279 275 274 273 276 280 285 288 290 291 291 292 294 296 299 302 304 306 306 305 303 303 303 306 310 316 321
278 272 254 242 240 236 234 237 241 247 258 267 275 282 290 297 302 306 310 314 316 316 314 317 323 327 329 331 332 333 333 333 333 335 337 335 330 322 314 310 313 319 324 326 327 326 324 323 320 314 307 304 302 299 297 294 289 285 281 277 276 276 276 278 280 281 281 282 283 286 289 292 295 300 304 306 307 307 306 304 302 301 303 307 311
267 254 242 238 234 229 231 234 239 248 259 269 276 283 291 295 298 304 311 316 316 315 316 322 327 328 329 331 333 334 334 332 332 335 338 337 331 324 321 319 318 321 324 325 326 325 323 321 320 317 312 305 301 298 296 295 292 287 285 283 281 280 280 279 279 278 279 280 281 284 286 288 291 295 300 303 305 305 305 304 301 299 299 301 303
251 241 236 233 228 225 229 232 238 247 257 267 275 283 288 289 295 304 311 316 317 317 319 325 328 328 328 330 333 336 335 333 333 335 338 339 334 328 328 328 326 326 326 326 325 322 320 319 319 319 316 310 302 297 294 293 293 290 288 287 285 284 283 283 281 279 279 281 282 285 286 288 291 295 298 301 303 303 303 303 301 299 298 299 300
237 234 233 229 225 224 227 231 235 242 251 262 271 277 280 283 294 305 311 315 317 318 322 327 328 327 328 330 334 337 337 335 335 336 338 340 338 335 333 333 332 330 327 325 324 321 319 319 319 319 318 314 307 301 296 293 291 291 289 286 286 287 288 287 286 285 285 285 286 288 290 292 294 296 299 301 302 302 300 299 299 298 298 298 298
230 232 232 228 224 224 226 228 231 237 248 258 266 269 273 282 293 302 309 313 315 319 325 328 328 328 329 333 336 339 340 339 337 337 338 339 340 342 341 340 336 332 328 324 323 321 320 320 321 321 319 316 311 306 302 298 291 288 288 285 284 287 288 288 288 289 291 293 295 296 296 297 298 298 299 302 303 302 299 296 295 295 295 296 296
230 233 231 228 225 224 226 226 230 236 246 254 259 262 268 277 288 298 305 309 313 321 327 329 328 329 332 335 338 340 341 339 337 336 336 337 342 347 346 343 340 338 334 328 325 323 322 323 323 322 321 319 316 312 308 306 299 290 286 284 284 286 286 287 287 288 290 294 296 297 297 297 297 297 296 299 302 302 299 296 293 292 293 293 293
233 234 231 228 226 226 227 227 230 236 244 249 253 257 263 271 283 293 300 304 314 325 329 329 327 329 333 337 338 339 339 338 335 334 334 337 342 344 342 343 343 343 342 337 331 327 325 323 323 322 321 320 319 316 313 311 307 297 289 285 284 283 284 285 286 286 288 290 292 293 293 293 292 291 290 292 297 300 299 299 296 294 293 293 292
234 233 231 229 228 228 228 229 232 237 242 245 248 253 257 266 279 288 294 302 318 329 331 329 328 330 334 337 335 335 336 334 333 333 334 335 337 335 335 339 339 340 341 340 335 330 326 322 318 317 316 316 316 317 317 314 311 303 295 291 289 286 284 284 284 286 287 290 292 293 292 291 290 288 287 289 294 297 299 300 300 298 296 293 291
232 231 230 229 228 228 229 230 232 236 240 242 246 249 253 263 275 283 289 301 321 331 332 331 331 333 336 335 332 332 332 331 331 332 333 330 327 327 329 331 330 330 333 336 336 332 328 322 318 317 316 315 313 314 316 316 315 309 301 296 295 293 290 288 286 285 286 287 289 289 289 288 288 287 287 289 292 296 298 299 299 299 297 293 289
229 229 228 227 227 227 228 229 231 234 237 240 243 244 249 259 269 275 281 296 320 332 335 336 337 339 337 334 330 329 329 328 330 329 326 321 318 321 324 326 325 323 325 330 333 333 331 328 325 324 324 321 316 314 314 316 317 315 310 303 300 299 298 297 295 291 288 288 287 287 287 285 284 284 286 288 290 294 297 298 298 297 296 294 290
228 229 229 229 229 228 228 228 229 231 234 237 238 239 244 254 260 264 270 290 318 334 340 341 343 343 339 333 329 327 327 325 325 322 317 313 315 320 323 325 324 321 321 323 326 327 327 326 325 325 326 325 321 318 317 317 318 319 319 316 314 312 310 306 303 300 296 293 292 291 291 288 284 283 284 286 289 292 294 297 298 297 296 294 291
228 230 232 232 231 229 228 227 228 230 232 234 233 234 242 248 250 255 262 282 312 333 343 344 343 342 336 330 326 324 323 321 318 314 312 313 317 321 324 326 325 322 320 319 319 318 316 315 315 316 317 319 319 318 317 317 317 317 317 317 316 314 312 308 306 305 300 295 294 293 293 292 289 287 285 286 287 289 291 293 295 295 296 295 292
231 233 235 234 232 229 227 227 228 230 232 232 231 234 240 243 244 249 256 272 300 327 340 344 342 338 334 327 322 319 317 314 312 310 311 313 317 320 322 324 323 323 322 321 318 315 313 311 310 310 311 311 311 310 309 309 309 309 310 310 308 307 305 303 302 302 300 298 296 295 294 294 293 291 289 288 287 288 289 289 290 291 293 295 295
232 234 235 234 231 229 227 227 228 230 231 230 230 235 238 239 241 245 251 263 286 313 333 342 343 337 332 325 319 316 313 311 310 309 310 310 313 317 319 321 320 320 319 318 316 314 312 311 310 309 308 308 307 306 305 304 303 303 304 305 305 304 302 301 300 299 299 298 297 297 297 296 295 294 292 291 289 288 287 286 286 286 289 292 294
232 234 234 233 230 229 227 227 228 229 229 228 230 236 238 238 239 243 248 257 273 296 319 334 340 337 331 324 319 317 315 313 312 311 312 311 312 314 316 317 315 314 313 314 314 313 312 311 310 310 310 309 308 307 307 306 305 304 304 304 304 304 304 303 301 300 298 296 296 296 297 297 297 296 296 294 293 291 288 286 284 284 284 285 289
232 233 234 233 231 230 228 227 228 228 226 227 231 235 237 237 238 242 247 253 265 282 299 315 329 333 330 326 323 321 320 317 316 315 314 314 313 312 312 312 312 311 311 313 315 315 315 313 312 311 311 309 307 308 308 309 308 308 308 307 306 305 305 305 304 302 300 299 298 297 297 297 296 296 296 295 295 295 293 289 284 282 282 281 283
233 235 236 236 235 233 230 228 227 226 225 227 232 235 236 237 238 241 245 250 259 270 282 294 308 318 325 326 325 324 322 320 317 316 314 313 313 312 311 310 310 310 312 313 315 316 316 315 313 312 311 309 307 307 307 308 308 309 310 310 310 308 307 307 306 304 303 302 301 300 300 299 297 295 294 295 296 297 297 294 288 283 282 281 279
234 237 238 238 236 233 229 228 227 225 226 229 233 236 236 237 239 242 246 249 255 264 272 280 288 298 310 318 321 321 319 317 314 312 311 310 311 311 310 309 309 310 310 311 312 313 313 312 311 309 309 307 306 306 306 306 307 307 308 308 309 309 309 309 309 307 305 304 304 303 302 301 300 297 295 294 294 296 297 297 294 287 281 278 277
235 235 236 237 235 231 227 226 226 226 227 231 235 237 239 240 242 245 248 251 255 261 266 272 279 284 293 301 306 309 309 308 307 307 306 306 307 307 307 308 308 308 308 309 309 308 308 307 306 305 305 304 303 303 304 303 304 305 305 305 305 305 306 307 307 306 306 305 303 302 302 302 301 300 298 296 295 295 295 295 295 291 284 279 277
229 228 230 233 230 224 224 226 228 229 229 234 238 241 243 243 246 248 251 255 257 261 263 267 273 276 281 286 290 294 297 299 300 301 302 303 303 305 307 308 308 308 307 306 306 306 305 304 303 303 302 302 301 300 300 301 302 304 305 304 303 303 303 304 304 304 304 303 302 301 301 301 300 300 300 299 298 297 295 293 292 292 289 284 280
218 222 222 222 218 215 221 226 230 232 234 238 242 243 244 245 248 251 255 259 261 263 264 266 270 274 277 280 284 287 291 293 294 295 296 297 299 302 304 307 307 307 305 304 304 304 304 304 303 303 302 301 301 300 299 300 301 303 304 304 303 301 301 301 301 302 303 303 303 302 301 300 299 299 299 299 298 297 295 293 291 290 289 287 284
208 214 215 216 218 219 224 229 231 235 237 240 243 243 245 248 250 253 257 261 264 265 266 268 272 275 278 280 282 284 286 288 289 289 291 292 293 296 299 301 303 304 303 302 301 301 301 302 303 304 303 302 302 301 301 301 301 303 304 304 303 302 301 301 300 301 302 303 303 303 302 301 299 297 297 297 297 297 296 294 292 290 289 287 286
211 217 223 229 233 234 235 237 237 239 240 241 242 242 246 250 252 255 259 262 265 266 268 270 273 276 278 280 281 282 284 285 286 287 288 289 291 293 295 297 299 300 300 299 300 300 299 300 301 302 303 303 302 302 301 301 302 303 304 304 303 303 302 301 301 301 302 302 303 303 303 302 301 299 298 297 297 297 297 296 294 292 290 288 286
220 229 240 248 247 246 245 245 243 243 242 242 242 243 247 251 253 255 258 262 264 266 267 270 273 275 278 279 281 282 283 284 286 287 287 289 290 291 292 293 295 296 297 298 300 301 301 300 300 300 301 301 301 301 300 301 302 303 304 304 303 303 302 301 301 302 302 301 301 302 303 303 302 302 300 299 298 298 299 298 296 294 291 290 289
221 232 244 252 253 251 248 248 245 244 244 244 244 245 248 250 254 256 259 263 265 267 270 273 276 278 280 281 281 281 282 283 284 285 286 287 288 289 290 291 293 294 296 297 299 299 299 299 299 299 299 299 299 300 300 300 301 302 303 304 304 304 303 302 302 303 302 301 301 301 301 301 300 300 299 298 297 297 298 298 297 296 294 292 291
227 236 244 250 250 247 246 245 245 246 246 246 247 249 252 253 256 259 263 266 268 270 273 276 278 279 280 280 281 281 282 283 284 286 287 289 290 290 292 293 294 295 296 297 297 297 297 297 297 298 298 298 298 298 298 299 300 302 302 302 302 303 302 302 303 304 303 302 302 301 301 301 301 300 299 298 296 294 294 295 296 297 296 293 291
233 238 244 247 247 246 245 245 248 249 248 249 251 253 255 256 258 261 265 268 271 273 275 277 278 280 282 283 284 286 286 288 289 291 292 293 294 294 295 295 296 296 296 296 296 296 296 296 296 296 296 297 297 297 297 298 299 300 300 300 300 300 299 300 301 302 302 302 302 301 301 301 302 302 301 299 298 296 294 292 293 294 295 294 293
238 242 246 248 248 247 246 246 248 250 250 252 254 255 255 256 258 261 264 268 271 274 276 278 281 283 285 287 288 289 290 292 293 295 296 297 298 298 299 299 299 298 298 297 296 296 296 295 294 294 294 294 295 296 297 297 298 299 299 299 299 298 297 298 299 298 298 297 298 298 298 298 299 300 300 299 299 298 296 294 293 292 292 293 293
238 243 246 248 249 247 246 246 248 250 251 254 256 256 256 256 258 262 266 270 272 275 277 280 283 285 287 289 290 291 291 293 295 297 299 300 301 302 303 303 302 302 301 300 299 298 297 296 295 295 294 293 293 293 295 296 297 297 298 298 299 298 296 295 295 294 293 292 291 292 292 293 294 294 294 294 295 295 295 295 294 293 291 291 291
236 240 244 248 249 249 249 249 251 253 254 256 258 258 258 259 263 266 269 272 273 276 278 281 285 287 289 290 291 293 293 294 296 298 300 302 303 304 305 305 305 304 304 303 302 300 298 297 296 295 295 294 293 292 292 292 293 294 295 296 297 297 296 294 293 292 290 289 289 289 289 289 290 290 289 289 289 290 291 292 291 291 291 290 288
237 242 248 251 251 252 252 254 256 257 258 257 257 258 260 264 268 270 272 273 274 276 278 282 285 287 289 291 292 294 294 295 297 299 301 304 305 306 307 308 308 307 307 305 304 302 300 299 297 296 295 294 293 292 291 290 289 290 291 292 293 294 295 295 294 293 291 289 288 288 288 288 288 288 287 287 286 285 285 287 287 288 288 288 287
240 246 251 252 254 253 251 253 255 257 257 258 258 259 263 267 272 274 275 276 277 279 281 283 285 288 290 293 294 296 298 299 302 304 305 307 308 309 309 310 310 309 308 307 306 304 302 300 299 298 297 296 294 293 292 290 289 289 288 288 289 290 291 292 293 293 293 292 289 287 287 288 288 287 287 287 286 285 285 284 285 286 285 285 285
244 248 250 251 255 253 251 251 253 257 259 260 262 264 267 271 274 277 278 280 281 282 283 284 286 289 291 294 296 299 301 303 305 307 308 309 310 310 311 311 310 309 308 308 307 306 304 302 301 300 299 298 297 295 293 291 290 289 288 287 286 286 286 287 288 290 291 292 291 289 287 286 286 287 287 286 285 285 285 285 284 284 283 283 283
246 249 250 252 254 254 255 256 258 262 265 267 268 269 272 275 277 280 282 283 284 284 285 286 287 290 292 295 298 300 302 304 305 307 307 308 309 309 309 309 309 309 309 309 308 307 305 304 303 302 301 300 298 297 295 293 291 289 288 287 285 284 283 283 284 285 287 288 289 289 287 285 284 284 284 284 284 284 284 284 284 282 282 282 281
Height
5898 5898 5897 5896 5895 5893 5892 5891 5890 5889 5888 5888 5887 5886 5885 5884 5883 5882 5881 5880 5879 5879 5878 5877 5876 5875 5874 5873 5871 5870 5869 5868 5867 5866 5865 5863 5862 5861 5859 5858 5857 5855 5854 5853 5852 5851 5850 5850 5850 5849 5848 5848 5847 5847 5847 5847 5847 5846 5846 5846 5846 5846 5846 5846 5845 5845 5845 5845 5845 5844 5844 5844 5844 5843 5843 5843 5842 5842 5842 5842 5842 5841 5841 5841 5841
5897 5897 5897 5896 5894 5893 5892 5891 5890 5889 5888 5887 5886 5885 5885 5884 5883 5882 5881 5880 5880 5879 5878 5878 5876 5875 5874 5873 5872 5870 5869 5868 5867 5866 5865 5863 5862 5861 5860 5858 5857 5855 5854 5853 5852 5851 5851 5850 5849 5849 5848 5848 5848 5847 5847 5847 5847 5847 5846 5846 5846 5846 5846 5846 5845 5845 5845 5845 5845 5845 5844 5844 5844 5844 5843 5843 5842 5842 5842 5842 5842 5841 5841 5841 5841
5897 5896 5896 5895 5894 5893 5891 5890 5889 5888 5887 5887 5886 5885 5884 5883 5883 5882 5881 5880 5880 5879 5878 5878 5877 5876 5874 5873 5872 5870 5869 5868 5867 5866 5864 5863 5862 5861 5860 5858 5857 5855 5854 5853 5852 5852 5851 5850 5850 5849 5848 5848 5848 5847 5847 5847 5847 5847 5846 5846 5846 5846 5846 5846 5845 5845 5845 5845 5845 5845 5845 5844 5844 5844 5843 5843 5843 5842 5842 5842 5842 5841 5841 5841 5841
5896 5896 5895 5894 5893 5892 5891 5890 5889 5888 5887 5886 5885 5884 5884 5883 5882 5882 5881 5880 5880 5879 5879 5878 5877 5876 5874 5873 5872 5870 5869 5868 5867 5866 5865 5863 5862 5861 5860 5858 5857 5856 5854 5854 5853 5852 5851 5851 5850 5849 5849 5848 5848 5848 5847 5847 5847 5847 5846 5846 5846 5846 5846 5846 5846 5845 5845 5845 5845 5845 5845 5844 5844 5844 5843 5843 5843 5842 5842 5842 5842 5842 5841 5841 5841
5896 5895 5895 5894 5892 5891 5890 5889 5888 5887 5886 5886 5885 5884 5883 5883 5882 5881 5881 5880 5880 5879 5879 5878 5877 5876 5874 5873 5872 5871 5869 5868 5867 5866 5865 5864 5862 5861 5860 5858 5857 5856 5855 5854 5853 5853 5852 5851 5851 5850 5849 5849 5848 5848 5847 5847 5847 5846 5846 5846 5846 5846 5846 5846 5846 5845 5845 5845 5845 5845 5844 5844 5844 5844 5843 5843 5843 5842 5842 5842 5842 5841 5841 5841 5840
5895 5894 5894 5893 5892 5891 5890 5889 5888 5887 5886 5885 5884 5884 5883 5882 5882 5881 5880 5880 5879 5879 5879 5878 5877 5876 5874 5873 5872 5871 5869 5868 5867 5866 5865 5864 5862 5861 5860 5858 5857 5856 5855 5854 5854 5853 5852 5852 5851 5850 5850 5849 5848 5848 5847 5847 5846 5846 5846 5846 5846 5846 5846 5845 5845 5845 5845 5845 5845 5845 5844 5844 5844 5844 5843 5843 5843 5842 5842 5842 5841 5841 5841 5840 5840
5894 5893 5893 5892 5891 5890 5889 5888 5887 5886 5885 5884 5884 5883 5883 5882 5881 5881 5880 5880 5879 5879 5878 5878 5877 5875 5874 5873 5872 5871 5869 5868 5867 5866 5864 5863 5862 5861 5859 5858 5857 5856 5855 5854 5854 5853 5853 5852 5851 5851 5850 5849 5849 5848 5847 5847 5846 5846 5846 5846 5845 5845 5845 5845 5845 5845 5845 5845 5844 5844 5844 5844 5844 5843 5843 5843 5842 5842 5841 5841 5841 5840 5840 5840 5839
5893 5892 5892 5891 5890 5889 5888 5887 5886 5885 5884 5884 5883 5883 5882 5882 5881 5880 5880 5879 5879 5879 5878 5877 5876 5875 5874 5873 5872 5870 5869 5868 5867 5865 5864 5863 5862 5861 5859 5858 5857 5856 5855 5854 5854 5853 5853 5852 5851 5851 5850 5850 5849 5848 5848 5847 5846 5846 5846 5845 5845 5845 5845 5845 5845 5845 5844 5844 5844 5844 5844 5843 5843 5843 5842 5842 5842 5841 5841 5840 5840 5839 5839 5839 5839
5891 5891 5890 5890 5888 5888 5887 5886 5885 5885 5884 5883 5882 5882 5882 5881 5881 5880 5880 5879 5879 5878 5878 5877 5876 5875 5874 5872 5871 5870 5869 5868 5867 5865 5864 5863 5862 5860 5859 5858 5857 5856 5855 5854 5854 5853 5852 5852 5851 5851 5850 5850 5849 5848 5848 5847 5847 5846 5846 5846 5845 5845 5845 5844 5844 5844 5844 5844 5843 5843 5843 5843 5843 5842 5842 5842 5841 5841 5840 5840 5839 5839 5838 5838 5838
5890 5889 5889 5888 5887 5887 5886 5885 5885 5884 5883 5883 5882 5881 5881 5881 5881 5880 5879 5879 5879 5878 5877 5876 5875 5874 5873 5872 5871 5869 5868 5867 5866 5865 5864 5863 5862 5860 5859 5858 5857 5856 5855 5854 5854 5853 5852 5852 5851 5851 5850 5850 5849 5848 5848 5847 5847 5846 5846 5846 5845 5845 5845 5844 5844 5844 5844 5844 5843 5843 5843 5843 5842 5842 5841 5841 5841 5840 5840 5839 5839 5838 5838 5837 5837
5889 5888 5888 5887 5886 5885 5885 5884 5884 5883 5883 5882 5881 5881 5881 5881 5880 5880 5879 5878 5878 5877 5876 5876 5875 5873 5872 5871 5870 5869 5868 5867 5866 5865 5864 5863 5862 5861 5859 5858 5857 5856 5855 5854 5854 5853 5852 5852 5851 5851 5850 5850 5849 5849 5848 5847 5847 5846 5846 5846 5845 5845 5845 5844 5844 5844 5844 5843 5843 5843 5842 5842 5842 5841 5841 5840 5840 5839 5839 5839 5838 5838 5837 5837 5837
5887 5886 5886 5885 5884 5884 5883 5883 5883 5883 5882 5881 5881 5881 5881 5880 5879 5879 5878 5878 5877 5876 5876 5875 5874 5873 5871 5870 5869 5868 5867 5867 5866 5865 5864 5863 5862 5861 5859 5858 5857 5856 5855 5855 5853 5853 5852 5852 5851 5850 5850 5850 5849 5849 5848 5848 5847 5846 5846 5846 5845 5845 5845 5844 5844 5844 5843 5843 5843 5842 5842 5842 5842 5841 5840 5840 5839 5839 5839 5838 5838 5837 5837 5837 5836
5885 5885 5884 5883 5883 5882 5882 5881 5882 5882 5881 5881 5880 5880 5880 5879 5879 5878 5878 5877 5876 5876 5875 5874 5873 5872 5871 5870 5869 5868 5867 5866 5865 5865 5864 5862 5861 5860 5859 5858 5857 5856 5855 5854 5853 5853 5852 5852 5851 5850 5850 5849 5849 5848 5848 5847 5847 5846 5846 5846 5845 5845 5845 5844 5844 5844 5843 5843 5843 5842 5842 5842 5841 5841 5840 5840 5839 5839 5838 5838 5837 5837 5836 5836 5836
5884 5883 5882 5882 5881 5880 5880 5880 5880 5880 5880 5880 5880 5880 5879 5879 5878 5878 5877 5877 5876 5875 5874 5873 5872 5871 5870 5869 5868 5867 5866 5866 5865 5864 5863 5862 5861 5859 5858 5857 5857 5856 5855 5854 5853 5852 5852 5852 5851 5850 5850 5849 5849 5848 5848 5847 5847 5846 5846 5846 5845 5845 5844 5844 5844 5843 5843 5842 5842 5842 5841 5841 5841 5840 5839 5839 5839 5839 5838 5838 5837 5837 5837 5836 5836
5881 5881 5880 5880 5879 5879 5879 5879 5879 5879 5879 5879 5879 5879 5878 5878 5878 5877 5877 5876 5875 5874 5873 5872 5871 5870 5869 5868 5867 5867 5866 5865 5864 5864 5863 5861 5860 5859 5858 5857 5857 5856 5855 5854 5853 5852 5852 5851 5851 5850 5849 5849 5848 5848 5847 5846 5846 5846 5845 5845 5845 5845 5844 5844 5843 5843 5842 5842 5841 5841 5841 5841 5840 5839 5839 5839 5838 5838 5838 5837 5837 5837 5836 5836 5835
5879 5878 5878 5878 5878 5877 5877 5878 5878 5878 5878 5878 5879 5878 5878 5877 5877 5877 5876 5875 5875 5874 5872 5871 5870 5869 5869 5868 5867 5866 5865 5865 5864 5863 5862 5861 5859 5858 5857 5857 5856 5856 5855 5854 5853 5852 5851 5851 5850 5850 5849 5848 5848 5847 5847 5846 5846 5845 5845 5844 5844 5844 5844 5843 5843 5842 5842 5841 5841 5841 5840 5840 5840 5839 5839 5838 5838 5837 5837 5837 5836 5836 5836 5835 5835
5877 5877 5877 5876 5876 5876 5877 5877 5877 5877 5877 5878 5878 5877 5877 5877 5876 5876 5876 5875 5874 5873 5872 5871 5870 5869 5868 5867 5866 5865 5865 5864 5863 5862 5861 5860 5859 5858 5857 5856 5856 5855 5854 5853 5852 5852 5851 5850 5850 5849 5849 5848 5847 5847 5846 5846 5845 5845 5844 5844 5844 5843 5843 5842 5842 5842 5841 5840 5840 5840 5840 5839 5839 5838 5838 5838 5837 5837 5836 5836 5835 5835 5835 5834 5834
5875 5875 5875 5875 5875 5876 5876 5876 5876 5877 5876 5877 5877 5877 5876 5876 5876 5875 5875 5874 5873 5872 5871 5870 5869 5868 5867 5867 5866 5865 5864 5863 5862 5862 5861 5860 5859 5858 5857 5856 5855 5854 5854 5853 5852 5851 5850 5850 5850 5849 5848 5848 5847 5847 5846 5846 5845 5845 5844 5844 5843 5843 5842 5842 5841 5841 5840 5840 5839 5839 5839 5838 5838 5838 5837 5837 5836 5836 5835 5835 5834 5834 5834 5833 5833
5874 5874 5874 5874 5874 5875 5875 5876 5876 5876 5876 5876 5876 5876 5876 5875 5875 5875 5874 5873 5872 5871 5870 5870 5869 5868 5867 5866 5865 5864 5863 5862 5861 5861 5860 5859 5858 5857 5857 5856 5855 5854 5853 5852 5852 5851 5849 5849 5848 5848 5848 5847 5846 5846 5846 5845 5845 5844 5844 5843 5843 5842 5842 5841 5841 5840 5840 5839 5838 5838 5838 5837 5837 5837 5836 5836 5835 5835 5834 5834 5833 5833 5833 5832 5832
5872 5873 5873 5873 5874 5874 5874 5875 5875 5875 5875 5875 5875 5875 5875 5875 5875 5874 5873 5872 5872 5871 5870 5869 5869 5867 5866 5865 5864 5863 5862 5861 5860 5860 5859 5859 5858 5857 5856 5855 5854 5853 5852 5852 5851 5850 5849 5848 5847 5847 5847 5846 5846 5845 5845 5845 5844 5843 5843 5843 5842 5842 5841 5840 5840 5840 5839 5838 5838 5837 5837 5836 5836 5836 5835 5835 5834 5834 5833 5833 5833 5832 5832 5831 5831
5871 5871 5872 5872 5873 5873 5873 5874 5874 5874 5874 5874 5875 5875 5874 5874 5874 5873 5872 5871 5871 5870 5869 5869 5868 5867 5865 5864 5863 5862 5861 5860 5859 5859 5858 5858 5857 5856 5855 5854 5854 5853 5852 5851 5851 5850 5848 5847 5846 5846 5845 5845 5844 5844 5844 5844 5843 5843 5842 5842 5841 5841 5840 5840 5839 5839 5838 5838 5837 5837 5836 5836 5835 5835 5834 5834 5833 5833 5832 5832 5831 5831 5831 5830 5830
5870 5870 5871 5871 5872 5872 5873 5873 5873 5873 5873 5874 5874 5874 5874 5873 5873 5872 5872 5871 5870 5869 5869 5868 5867 5865 5864 5863 5862 5861 5860 5859 5858 5858 5857 5856 5856 5855 5854 5854 5853 5852 5851 5850 5850 5849 5848 5847 5846 5845 5844 5844 5843 5843 5843 5843 5842 5842 5841 5841 5840 5840 5839 5839 5838 5838 5838 5837 5837 5836 5836 5835 5835 5834 5834 5833 5832 5832 5831 5831 5830 5830 5829 5829 5829
5869 5869 5870 5870 5871 5871 5871 5872 5872 5872 5872 5873 5873 5873 5873 5873 5872 5871 5871 5870 5869 5869 5868 5867 5866 5864 5863 5862 5861 5860 5859 5858 5857 5857 5856 5855 5855 5854 5853 5853 5852 5851 5851 5850 5849 5848 5847 5846 5845 5844 5844 5843 5842 5842 5842 5842 5841 5841 5840 5840 5839 5839 5838 5837 5837 5837 5836 5836 5836 5835 5835 5834 5834 5833 5833 5832 5831 5831 5830 5829 5829 5828 5828 5828 5828
5868 5868 5869 5869 5869 5870 5870 5870 5871 5871 5871 5872 5872 5872 5872 5872 5871 5871 5870 5869 5869 5868 5867 5866 5865 5863 5862 5861 5860 5859 5858 5857 5857 5856 5855 5854 5854 5853 5853 5852 5852 5851 5850 5849 5848 5848 5847 5846 5845 5844 5843 5842 5842 5841 5840 5840 5840 5840 5839 5839 5838 5838 5837 5836 5835 5835 5835 5835 5834 5834 5833 5833 5832 5832 5831 5831 5830 5829 5829 5828 5828 5827 5827 5826 5826
5867 5867 5867 5868 5868 5868 5869 5869 5869 5870 5870 5871 5871 5871 5871 5871 5870 5870 5869 5868 5868 5867 5866 5865 5864 5863 5862 5861 5860 5859 5857 5857 5856 5855 5854 5854 5853 5852 5852 5852 5851 5851 5850 5849 5848 5847 5846 5846 5845 5844 5843 5842 5841 5840 5839 5839 5839 5838 5838 5837 5837 5837 5836 5835 5834 5833 5833 5833 5833 5832 5831 5831 5830 5830 5829 5829 5828 5828 5827 5827 5826 5826 5825 5825 5825
5866 5866 5866 5866 5867 5867 5868 5868 5868 5869 5869 5869 5870 5870 5870 5869 5869 5869 5868 5868 5867 5866 5865 5864 5863 5862 5861 5860 5859 5858 5857 5856 5855 5855 5854 5853 5852 5852 5851 5851 5851 5850 5849 5848 5848 5847 5846 5845 5844 5843 5843 5842 5841 5840 5839 5838 5837 5837 5836 5835 5835 5835 5834 5834 5833 5832 5832 5831 5831 5831 5830 5829 5828 5828 5827 5827 5827 5826 5826 5825 5825 5824 5824 5823 5823
5864 5864 5864 5865 5865 5866 5866 5867 5867 5867 5868 5868 5868 5868 5868 5868 5868 5868 5867 5867 5866 5865 5864 5863 5862 5861 5860 5859 5858 5857 5856 5855 5855 5854 5853 5853 5852 5851 5851 5850 5850 5849 5849 5848 5847 5846 5846 5845 5844 5843 5842 5841 5840 5839 5838 5837 5837 5836 5835 5834 5833 5833 5832 5831 5831 5830 5830 5829 5829 5829 5828 5827 5826 5826 5826 5826 5825 5825 5824 5824 5823 5823 5822 5821 5821
5862 5863 5863 5863 5864 5864 5865 5865 5865 5865 5866 5866 5866 5867 5867 5867 5867 5866 5866 5866 5865 5864 5863 5862 5861 5860 5859 5858 5857 5856 5855 5854 5854 5853 5853 5852 5852 5851 5850 5850 5849 5848 5848 5847 5847 5846 5845 5844 5844 5843 5842 5841 5840 5839 5838 5837 5836 5835 5835 5834 5833 5832 5831 5830 5829 5828 5828 5828 5827 5827 5826 5825 5825 5824 5824 5824 5824 5823 5823 5822 5822 5821 5820 5820 5819
5861 5861 5861 5861 5862 5862 5863 5863 5863 5864 5864 5864 5865 5865 5865 5865 5865 5865 5865 5865 5864 5863 5862 5861 5860 5859 5858 5857 5856 5856 5855 5854 5853 5853 5852 5852 5851 5851 5850 5849 5848 5848 5847 5847 5846 5845 5844 5844 5843 5843 5842 5841 5840 5839 5838 5837 5836 5835 5834 5833 5832 5831 5830 5829 5828 5827 5827 5826 5825 5825 5824 5824 5823 5822 5822 5822 5822 5821 5821 5821 5820 5819 5819 5818 5818
5859 5859 5859 5859 5860 5860 5860 5861 5861 5862 5862 5862 5863 5863 5864 5864 5864 5864 5864 5863 5863 5862 5861 5860 5859 5858 5857 5856 5856 5855 5854 5854 5853 5852 5851 5851 5850 5850 5849 5848 5848 5847 5847 5846 5845 5844 5844 5843 5842 5842 5841 5840 5839 5838 5837 5836 5835 5834 5833 5832 5831 5830 5830 5828 5827 5826 5825 5824 5823 5823 5822 5822 5821 5821 5820 5820 5819 5819 5819 5819 5818 5818 5817 5817 5816
5857 5857 5856 5857 5857 5857 5858 5859 5859 5860 5860 5861 5861 5862 5862 5862 5863 5862 5862 5862 5862 5861 5860 5859 5858 5857 5856 5856 5855 5855 5854 5853 5853 5852 5851 5850 5850 5849 5848 5848 5847 5846 5846 5845 5844 5844 5843 5842 5841 5840 5840 5839 5838 5837 5836 5835 5834 5833 5832 5831 5830 5829 5828 5827 5826 5825 5824 5823 5822 5821 5820 5820 5819 5819 5818 5818 5817 5817 5817 5816 5816 5816 5815 5815 5815
5854 5854 5853 5854 5854 5855 5856 5857 5857 5858 5858 5859 5860 5860 5860 5861 5861 5861 5861 5861 5860 5860 5859 5858 5858 5857 5856 5855 5854 5854 5853 5853 5852 5851 5851 5850 5849 5848 5847 5847 5846 5845 5845 5844 5843 5843 5842 5841 5840 5839 5838 5837 5836 5836 5835 5834 5833 5832 5831 5830 5828 5827 5826 5825 5824 5823 5822 5821 5820 5819 5818 5818 5818 5817 5816 5816 5815 5815 5815 5814 5814 5813 5813 5813 5812
5851 5851 5851 5852 5852 5853 5854 5855 5855 5856 5857 5858 5858 5858 5859 5859 5859 5859 5859 5859 5859 5859 5858 5858 5857 5856 5856 5855 5854 5853 5853 5852 5851 5851 5850 5849 5848 5847 5846 5846 5845 5844 5844 5843 5842 5841 5841 5840 5839 5838 5837 5836 5835 5834 5834 5833 5832 5830 5829 5828 5827 5826 5825 5824 5823 5822 5821 5820 5819 5818 5817 5816 5816 5815 5814 5814 5813 5813 5813 5812 5811 5811 5811 5811 5810
5848 5849 5849 5851 5852 5852 5853 5853 5854 5855 5856 5856 5856 5857 5857 5858 5858 5858 5858 5858 5858 5858 5857 5857 5856 5856 5855 5854 5853 5853 5852 5851 5851 5850 5849 5848 5847 5846 5846 5845 5844 5843 5842 5842 5841 5840 5840 5838 5837 5836 5836 5835 5834 5833 5832 5831 5830 5829 5828 5827 5826 5825 5823 5822 5821 5820 5819 5819 5818 5816 5815 5814 5814 5814 5813 5812 5811 5811 5810 5810 5809 5809 5809 5809 5808
5846 5847 5848 5850 5850 5851 5851 5852 5852 5853 5854 5854 5855 5855 5856 5856 5857 5857 5857 5857 5857 5856 5856 5856 5855 5855 5855 5854 5853 5852 5851 5851 5850 5849 5848 5847 5846 5845 5845 5844 5843 5842 5841 5841 5840 5839 5838 5837 5836 5835 5834 5833 5832 5832 5831 5830 5829 5828 5827 5826 5825 5823 5822 5821 5820 5819 5818 5817 5816 5815 5814 5813 5812 5811 5811 5810 5809 5808 5808 5807 5807 5806 5806 5806 5806
5845 5846 5847 5847 5848 5849 5849 5850 5851 5852 5852 5853 5853 5854 5855 5855 5855 5855 5855 5855 5855 5855 5855 5855 5854 5854 5854 5853 5852 5851 5850 5850 5849 5848 5847 5846 5845 5844 5843 5843 5842 5841 5840 5839 5839 5838 5837 5836 5835 5834 5832 5831 5831 5830 5829 5828 5827 5826 5825 5824 5823 5822 5821 5819 5818 5817 5816 5815 5814 5813 5812 5811 5810 5809 5808 5808 5807 5806 5806 5805 5805 5804 5804 5803 5803
5843 5843 5844 5845 5846 5847 5848 5848 5849 5850 5851 5852 5852 5853 5853 5854 5854 5854 5854 5854 5854 5854 5854 5853 5853 5853 5853 5852 5852 5851 5850 5849 5848 5847 5846 5845 5844 5843 5842 5841 5840 5839 5839 5838 5837 5836 5835 5834 5833 5832 5830 5829 5829 5828 5827 5826 5825 5824 5823 5822 5821 5820 5819 5818 5816 5815 5814 5813 5812 5811 5810 5809 5808 5807 5806 5806 5805 5805 5804 5803 5802 5802 5801 5801 5801
5840 5840 5841 5843 5844 5845 5846 5847 5848 5848 5849 5850 5851 5852 5852 5853 5853 5853 5853 5853 5853 5852 5852 5852 5852 5852 5851 5851 5851 5850 5849 5848 5847 5846 5845 5844 5843 5842 5841 5840 5839 5838 5837 5836 5836 5835 5833 5832 5831 5830 5829 5827 5826 5826 5825 5824 5823 5822 5821 5820 5819 5818 5817 5815 5814 5812 5811 5810 5810 5809 5808 5807 5806 5805 5804 5803 5803 5803 5802 5801 5800 5799 5799 5798 5798
5838 5838 5840 5841 5841 5843 5844 5845 5846 5847 5848 5848 5849 5850 5850 5851 5851 5851 5851 5851 5851 5851 5851 5851 5850 5850 5850 5850 5849 5848 5848 5847 5846 5845 5844 5843 5842 5841 5840 5839 5838 5837 5836 5835 5834 5833 5832 5831 5829 5828 5827 5826 5825 5824 5823 5822 5821 5819 5818 5817 5816 5815 5814 5813 5811 5810 5809 5808 5807 5806 5805 5805 5804 5803 5802 5801 5800 5800 5800 5799 5798 5797 5797 5796 5796
5835 5836 5837 5839 5839 5841 5842 5843 5844 5845 5846 5846 5847 5848 5848 5849 5849 5850 5850 5850 5850 5849 5849 5849 5849 5848 5848 5848 5847 5847 5846 5845 5844 5843 5842 5841 5840 5839 5838 5837 5836 5836 5835 5834 5833 5832 5831 5829 5828 5826 5825 5824 5823 5822 5821 5819 5818 5817 5816 5814 5813 5812 5811 5810 5809 5807 5806 5805 5804 5803 5802 5802 5801 5801 5800 5799 5797 5797 5797 5796 5796 5795 5794 5794 5793
5832 5833 5835 5837 5838 5840 5841 5842 5843 5843 5844 5844 5845 5846 5846 5847 5847 5848 5848 5848 5848 5848 5847 5847 5847 5847 5846 5846 5846 5845 5844 5844 5843 5842 5841 5840 5839 5838 5837 5836 5835 5834 5833 5832 5831 5830 5829 5827 5826 5825 5823 5822 5821 5820 5819 5817 5816 5815 5814 5812 5811 5810 5808 5807 5806 5805 5804 5803 5802 5801 5800 5799 5798 5798 5797 5796 5795 5794 5793 5793 5793 5792 5792 5791 5791
5831 5833 5835 5836 5838 5839 5840 5841 5841 5842 5842 5843 5843 5844 5844 5845 5845 5845 5846 5846 5846 5846 5846 5845 5845 5845 5845 5844 5844 5843 5843 5842 5841 5840 5839 5838 5837 5836 5835 5834 5833 5832 5831 5831 5829 5828 5827 5826 5824 5823 5822 5820 5819 5817 5816 5815 5814 5813 5812 5810 5808 5807 5805 5804 5803 5802 5801 5800 5799 5798 5797 5796 5796 5795 5795 5794 5793 5792 5791 5790 5790 5790 5789 5789 5788
5831 5833 5835 5836 5837 5838 5839 5840 5840 5841 5841 5841 5842 5842 5843 5843 5843 5844 5844 5844 5844 5844 5844 5844 5843 5843 5843 5842 5842 5841 5840 5840 5839 5838 5837 5836 5835 5834 5833 5832 5831 5830 5829 5828 5827 5826 5825 5824 5822 5821 5820 5818 5817 5815 5814 5812 5811 5810 5810 5808 5807 5805 5803 5801 5801 5800 5798 5797 5795 5794 5794 5793 5792 5792 5791 5791 5790 5790 5789 5788 5788 5787 5787 5786 5786
5831 5832 5833 5835 5836 5837 5838 5839 5839 5839 5840 5840 5841 5841 5841 5842 5842 5842 5842 5842 5842 5842 5842 5842 5842 5841 5841 5840 5839 5839 5838 5837 5837 5836 5835 5834 5833 5832 5831 5830 5829 5828 5827 5826 5825 5824 5823 5821 5820 5819 5817 5816 5814 5813 5811 5810 5809 5808 5807 5806 5805 5804 5801 5799 5799 5798 5796 5794 5792 5791 5790 5790 5789 5788 5787 5787 5786 5786 5787 5786 5786 5785 5784 5784 5783
5830 5831 5833 5834 5835 5836 5837 5837 5838 5838 5838 5839 5839 5840 5840 5840 5840 5840 5841 5841 5841 5840 5840 5840 5840 5839 5839 5838 5837 5837 5836 5835 5834 5834 5833 5832 5831 5830 5829 5828 5827 5826 5825 5824 5823 5821 5820 5819 5817 5816 5815 5814 5812 5810 5808 5807 5806 5805 5804 5803 5802 5801 5800 5797 5796 5796 5794 5792 5791 5789 5787 5787 5786 5785 5784 5783 5782 5782 5782 5782 5782 5782 5781 5781 5780
5830 5831 5832 5833 5834 5834 5835 5836 5836 5837 5837 5837 5838 5838 5838 5839 5839 5839 5839 5839 5839 5838 5838 5838 5837 5837 5837 5836 5836 5835 5834 5833 5832 5831 5831 5830 5829 5828 5827 5826 5824 5823 5822 5821 5820 5819 5817 5816 5814 5813 5812 5810 5809 5808 5806 5804 5802 5801 5800 5799 5798 5797 5797 5795 5794 5794 5793 5791 5789 5787 5785 5784 5784 5784 5782 5781 5779 5778 5778 5777 5778 5778 5778 5778 5777
5829 5829 5830 5831 5832 5833 5833 5834 5835 5835 5835 5836 5836 5836 5837 5837 5837 5837 5837 5837 5836 5836 5836 5835 5835 5835 5834 5834 5834 5833 5832 5831 5830 5829 5828 5827 5826 5825 5824 5823 5822 5821 5819 5818 5817 5815 5814 5813 5811 5810 5809 5807 5806 5805 5803 5802 5800 5798 5796 5795 5794 5793 5792 5791 5790 5790 5790 5790 5788 5785 5783 5782 5781 5781 5780 5778 5777 5776 5775 5774 5773 5773 5773 5774 5774
5828 5828 5829 5830 5830 5831 5832 5832 5833 5833 5833 5834 5834 5834 5835 5835 5835 5835 5835 5834 5834 5834 5833 5833 5832 5832 5832 5831 5831 5830 5829 5828 5828 5827 5826 5825 5824 5823 5822 5821 5819 5818 5817 5815 5814 5812 5811 5809 5808 5806 5805 5803 5802 5800 5799 5798 5797 5795 5793 5791 5790 5789 5787 5786 5785 5784 5785 5786 5786 5783 5781 5779 5779 5778 5776 5775 5774 5773 5772 5771 5770 5769 5769 5769 5769
5827 5827 5828 5828 5829 5830 5830 5831 5831 5831 5831 5832 5832 5832 5832 5833 5832 5832 5832 5832 5831 5831 5830 5830 5830 5830 5829 5829 5828 5827 5826 5825 5824 5823 5823 5822 5821 5820 5819 5817 5816 5815 5813 5812 5810 5809 5807 5806 5804 5802 5801 5799 5798 5796 5795 5794 5792 5791 5790 5788 5787 5785 5784 5782 5780 5779 5779 5780 5781 5781 5778 5775 5775 5774 5773 5771 5770 5769 5768 5767 5767 5765 5765 5765 5764
5825 5826 5826 5827 5827 5828 5828 5829 5829 5829 5830 5830 5830 5830 5830 5830 5830 5830 5830 5829 5829 5828 5828 5827 5827 5827 5826 5825 5824 5823 5822 5821 5820 5820 5819 5818 5817 5816 5815 5814 5812 5811 5810 5808 5807 5805 5804 5802 5800 5799 5797 5795 5793 5792 5790 5789 5788 5787 5786 5784 5783 5782 5780 5779 5777 5775 5774 5774 5774 5776 5775 5772 5770 5770 5769 5766 5765 5765 5764 5763 5762 5761 5760 5760 5760
5823 5824 5825 5825 5825 5826 5826 5827 5827 5827 5827 5827 5828 5828 5828 5828 5828 5827 5827 5826 5826 5825 5825 5825 5824 5824 5823 5822 5821 5820 5819 5818 5817 5817 5816 5815 5814 5812 5811 5810 5809 5807 5806 5805 5803 5802 5800 5798 5796 5794 5793 5791 5789 5788 5786 5784 5783 5782 5781 5780 5778 5777 5776 5775 5773 5771 5770 5769 5768 5769 5770 5769 5767 5767 5766 5762 5761 5761 5760 5759 5758 5757 5756 5756 5755